Location: Kra?nica
(53.4833°N, 14.6167°E)
Time: 05:40:43
(UTC+00:00)

RESURS DK-1 - Pass Details

Date: 23 May 2024
Orbit: 541 x 547 km, 69.9° (Epoch: 15 June)

Event Time Altitude Azimuth Distance (km) Brightness Sun altitude
Rises 00:25:27 0° 329° (NNW) 2,722 6.4 -13.5°
Reaches altitude 10° 00:27:48 10° 338° (NNW) 1,827 5.7 -13.4°
Maximum altitude 00:31:34 36° 46° (NE) 890 4.0 -13.2°
Drops below altitude 10° 00:35:20 10° 113° (ESE) 1,820 5.0 -13.0°
Sets 00:37:39 0° 123° (ESE) 2,711 5.8 -12.8°
